CCM26G LFKJ-EBCI

Flight info

Callsign CCM26G
Flight time 1h 33m
Altitude 34000
Route LONSU M622 PIGOS DCT BARSO DCT IRMAR DCT KINES DCT VANAS DCT MOBLO DCT UBIMA DCT GILIR DCT PENDU DCT IXILU DCT EPL/N0453F320 DCT ROUSY/N0454F310 M624 DIK/N0453F320 Y37 BATTY
Aircraft A320/M-SDE3FGHIRWY/LB1

Departure

Time 2026-05-06 08:33
Airport Ajaccio Napoléon Bonaparte airport (LFKJ)

Arrival

Time 2026-05-06 10:06
Airport Brussels South Charleroi Airport (EBCI)
Time Latitude Longitude Altitude Speed Heading
2026-05-06 08:12 41.92025 8.79601 25 ft 0 kts 314°
2026-05-06 08:27 41.92053 8.79595 21 ft 5 kts 40°
2026-05-06 08:27 41.92053 8.79649 21 ft 6 kts 111°
2026-05-06 08:28 41.92052 8.79693 21 ft 4 kts 64°
2026-05-06 08:28 41.92091 8.79726 21 ft 7 kts 24°
2026-05-06 08:28 41.92141 8.79757 21 ft 12 kts 26°
2026-05-06 08:28 41.92228 8.79810 21 ft 13 kts 24°
2026-05-06 08:29 41.92310 8.79861 21 ft 12 kts 26°
2026-05-06 08:29 41.92384 8.79908 21 ft 11 kts 25°
2026-05-06 08:29 41.92462 8.79957 22 ft 12 kts 25°
2026-05-06 08:29 41.92539 8.80005 22 ft 14 kts 25°
2026-05-06 08:30 41.92649 8.80073 23 ft 18 kts 26°
2026-05-06 08:30 41.92753 8.80142 22 ft 16 kts 31°
2026-05-06 08:30 41.92832 8.80232 22 ft 14 kts 44°
2026-05-06 08:30 41.92890 8.80308 22 ft 8 kts 44°
2026-05-06 08:31 41.92927 8.80357 22 ft 7 kts 44°
2026-05-06 08:31 41.92959 8.80418 23 ft 9 kts 71°
2026-05-06 08:31 41.92956 8.80503 26 ft 9 kts 104°
2026-05-06 08:31 41.92933 8.80558 28 ft 5 kts 144°
2026-05-06 08:32 41.92897 8.80559 25 ft 6 kts 200°
2026-05-06 08:32 41.92853 8.80530 25 ft 9 kts 205°
2026-05-06 08:32 41.92649 8.80403 22 ft 68 kts 205°
2026-05-06 08:32 41.92026 8.80015 23 ft 127 kts 205°
2026-05-06 08:33 41.91143 8.79465 406 ft 141 kts 205°
2026-05-06 08:33 41.90288 8.78836 1023 ft 143 kts 224°
2026-05-06 08:33 41.89757 8.77703 1708 ft 142 kts 241°
2026-05-06 08:33 41.89252 8.76455 2043 ft 164 kts 239°
2026-05-06 08:34 41.88670 8.75032 2345 ft 185 kts 239°
2026-05-06 08:34 41.87283 8.71696 3071 ft 225 kts 239°
2026-05-06 08:34 41.86487 8.69825 3681 ft 240 kts 240°
2026-05-06 08:35 41.85632 8.67839 4476 ft 249 kts 239°
2026-05-06 08:35 41.84756 8.65824 5388 ft 251 kts 240°
2026-05-06 08:35 41.84091 8.63651 6297 ft 255 kts 258°
2026-05-06 08:35 41.84101 8.61265 7180 ft 261 kts 279°
2026-05-06 08:36 41.84835 8.59020 8056 ft 271 kts 301°
2026-05-06 08:36 41.86255 8.57292 8943 ft 285 kts 325°
2026-05-06 08:36 41.88055 8.56170 9807 ft 291 kts 330°
2026-05-06 08:36 41.89967 8.55044 10333 ft 306 kts 330°
2026-05-06 08:37 41.91962 8.53864 10583 ft 330 kts 330°
2026-05-06 08:37 41.94137 8.52576 10793 ft 352 kts 330°
2026-05-06 08:37 41.96425 8.51226 11274 ft 363 kts 331°
2026-05-06 08:37 41.98753 8.49857 11947 ft 368 kts 330°
2026-05-06 08:38 42.01119 8.48466 12658 ft 373 kts 330°
2026-05-06 08:38 42.03508 8.47056 13361 ft 377 kts 330°
2026-05-06 08:38 42.05917 8.45628 14017 ft 381 kts 330°
2026-05-06 08:38 42.08351 8.44178 14636 ft 384 kts 330°
2026-05-06 08:39 42.10777 8.42733 15243 ft 388 kts 330°
2026-05-06 08:39 42.13253 8.41259 15842 ft 391 kts 330°
2026-05-06 08:39 42.15755 8.39768 16445 ft 395 kts 330°
2026-05-06 08:39 42.18277 8.38262 17016 ft 398 kts 329°
2026-05-06 08:40 42.20818 8.36741 17589 ft 401 kts 329°
2026-05-06 08:40 42.23382 8.35204 18143 ft 404 kts 329°
2026-05-06 08:40 42.25963 8.33655 18657 ft 408 kts 329°
2026-05-06 08:40 42.28563 8.32096 19136 ft 411 kts 329°
2026-05-06 08:41 42.31158 8.30545 19601 ft 414 kts 329°
2026-05-06 08:41 42.33805 8.28958 20052 ft 418 kts 329°
2026-05-06 08:41 42.36472 8.27354 20498 ft 421 kts 329°
2026-05-06 08:41 42.39157 8.25733 20944 ft 425 kts 329°
2026-05-06 08:42 42.41864 8.24096 21383 ft 428 kts 329°
2026-05-06 08:42 42.44594 8.22446 21820 ft 431 kts 329°
2026-05-06 08:42 42.47349 8.20786 22259 ft 435 kts 329°
2026-05-06 08:42 42.50122 8.19117 22662 ft 438 kts 329°
2026-05-06 08:43 42.52915 8.17436 23088 ft 441 kts 329°
2026-05-06 08:43 42.55694 8.15761 23460 ft 444 kts 329°
2026-05-06 08:43 42.58527 8.14045 23806 ft 447 kts 329°
2026-05-06 08:43 42.61370 8.12317 24145 ft 450 kts 329°
2026-05-06 08:44 42.64235 8.10575 24490 ft 452 kts 329°
2026-05-06 08:44 42.67112 8.08824 24826 ft 455 kts 329°
2026-05-06 08:44 42.70004 8.07063 25158 ft 457 kts 329°
2026-05-06 08:44 42.72917 8.05288 25497 ft 459 kts 329°
2026-05-06 08:45 42.75842 8.03505 25826 ft 463 kts 329°
2026-05-06 08:45 42.78734 8.01695 26113 ft 464 kts 327°
2026-05-06 08:45 42.81613 7.99699 26423 ft 464 kts 324°
2026-05-06 08:45 42.84441 7.97572 26708 ft 465 kts 323°
2026-05-06 08:46 42.87247 7.95361 27030 ft 467 kts 322°
2026-05-06 08:46 42.90054 7.93120 27310 ft 469 kts 322°
2026-05-06 08:46 42.92883 7.90880 27583 ft 472 kts 322°
2026-05-06 08:46 42.95744 7.88650 27888 ft 474 kts 322°
2026-05-06 08:47 42.98630 7.86436 28167 ft 477 kts 322°
2026-05-06 08:47 43.01501 7.84258 28431 ft 480 kts 323°
2026-05-06 08:47 43.04422 7.82051 28785 ft 480 kts 323°
2026-05-06 08:47 43.07340 7.79847 29185 ft 479 kts 322°
2026-05-06 08:48 43.10255 7.77633 29581 ft 478 kts 322°
2026-05-06 08:48 43.13150 7.75406 29962 ft 478 kts 322°
2026-05-06 08:48 43.16044 7.73162 30296 ft 477 kts 322°
2026-05-06 08:48 43.18926 7.70919 30654 ft 476 kts 321°
2026-05-06 08:49 43.21800 7.68682 30822 ft 475 kts 321°
2026-05-06 08:49 43.24676 7.66441 31350 ft 474 kts 321°
2026-05-06 08:49 43.27542 7.64207 31704 ft 473 kts 321°
2026-05-06 08:49 43.30394 7.61982 32064 ft 472 kts 321°
2026-05-06 08:50 43.33207 7.59791 32421 ft 470 kts 322°
2026-05-06 08:50 43.36053 7.57587 32820 ft 469 kts 321°
2026-05-06 08:50 43.38891 7.55386 33218 ft 467 kts 321°
2026-05-06 08:50 43.41722 7.53185 33561 ft 467 kts 321°
2026-05-06 08:51 43.44539 7.50987 33842 ft 466 kts 321°
2026-05-06 08:51 43.50178 7.46584 33898 ft 465 kts 321°
2026-05-06 08:52 43.55763 7.42209 33900 ft 465 kts 321°
2026-05-06 08:52 43.61378 7.37790 33895 ft 466 kts 321°
2026-05-06 08:53 43.66874 7.33135 33895 ft 462 kts 317°
2026-05-06 08:53 43.72188 7.28167 33893 ft 461 kts 316°
2026-05-06 08:54 43.77478 7.23161 33892 ft 461 kts 316°
2026-05-06 08:54 43.82772 7.18255 33887 ft 462 kts 317°
2026-05-06 08:55 43.88137 7.13329 33886 ft 463 kts 317°
2026-05-06 08:55 43.93501 7.08400 33877 ft 463 kts 317°
2026-05-06 08:56 43.98864 7.03444 33875 ft 463 kts 317°
2026-05-06 08:56 44.04184 6.98506 33879 ft 463 kts 317°
2026-05-06 08:57 44.09551 6.93515 33875 ft 464 kts 317°
2026-05-06 08:57 44.15423 6.89458 33875 ft 483 kts 335°
2026-05-06 08:58 44.22146 6.87866 33892 ft 495 kts 347°
2026-05-06 08:58 44.28950 6.86861 33876 ft 495 kts 347°
2026-05-06 08:59 44.35795 6.85817 33872 ft 495 kts 347°
2026-05-06 08:59 44.42643 6.84764 33876 ft 496 kts 348°
2026-05-06 09:00 44.49493 6.83715 33875 ft 494 kts 348°
2026-05-06 09:00 44.56318 6.82676 33887 ft 493 kts 348°
2026-05-06 09:01 44.63134 6.81640 33888 ft 493 kts 348°
2026-05-06 09:01 44.69901 6.80600 33878 ft 492 kts 348°
2026-05-06 09:02 44.76711 6.79550 33883 ft 493 kts 348°
2026-05-06 09:02 44.83549 6.78614 33877 ft 495 kts 351°
2026-05-06 09:03 44.90445 6.78174 33866 ft 497 kts 353°
2026-05-06 09:03 44.97310 6.77893 33866 ft 497 kts 353°
2026-05-06 09:04 45.04221 6.77508 33860 ft 497 kts 353°
2026-05-06 09:04 45.11130 6.77020 33882 ft 497 kts 352°
2026-05-06 09:05 45.18036 6.76525 33866 ft 497 kts 352°
2026-05-06 09:05 45.24953 6.76070 33875 ft 499 kts 353°
2026-05-06 09:06 45.31889 6.75616 33872 ft 499 kts 353°
2026-05-06 09:06 45.38776 6.75154 33877 ft 499 kts 353°
2026-05-06 09:07 45.45709 6.74684 33887 ft 498 kts 353°
2026-05-06 09:07 45.52636 6.74209 33882 ft 499 kts 353°
2026-05-06 09:08 45.59525 6.73738 33891 ft 499 kts 353°
2026-05-06 09:08 45.66455 6.73267 33889 ft 499 kts 353°
2026-05-06 09:09 45.73384 6.72793 33883 ft 499 kts 353°
2026-05-06 09:09 45.80321 6.72312 33881 ft 500 kts 353°
2026-05-06 09:10 45.87275 6.71831 33881 ft 500 kts 353°
2026-05-06 09:10 45.94227 6.71369 33882 ft 500 kts 354°
2026-05-06 09:11 46.01120 6.70914 33876 ft 499 kts 354°
2026-05-06 09:11 46.08074 6.70432 33876 ft 500 kts 354°
2026-05-06 09:12 46.14890 6.68979 33883 ft 491 kts 339°
2026-05-06 09:12 46.21360 6.65879 33876 ft 491 kts 336°
2026-05-06 09:13 46.27841 6.62729 33876 ft 492 kts 336°
2026-05-06 09:13 46.34336 6.59570 33874 ft 492 kts 336°
2026-05-06 09:14 46.40777 6.56432 33873 ft 492 kts 336°
2026-05-06 09:14 46.47269 6.53245 33873 ft 493 kts 336°
2026-05-06 09:15 46.53767 6.50061 33869 ft 493 kts 336°
2026-05-06 09:15 46.60264 6.46863 33896 ft 493 kts 337°
2026-05-06 09:16 46.66737 6.43666 33875 ft 491 kts 337°
2026-05-06 09:16 46.73150 6.40475 33865 ft 490 kts 337°
2026-05-06 09:17 46.79616 6.37250 33865 ft 493 kts 337°
2026-05-06 09:17 46.86105 6.34032 33860 ft 492 kts 337°
2026-05-06 09:18 46.92543 6.30841 33861 ft 492 kts 337°
2026-05-06 09:18 46.99021 6.27604 33852 ft 492 kts 337°
2026-05-06 09:19 47.05478 6.24338 33877 ft 490 kts 335°
2026-05-06 09:19 47.11613 6.20132 33874 ft 486 kts 329°
2026-05-06 09:20 47.17675 6.15756 33885 ft 484 kts 330°
2026-05-06 09:20 47.22682 6.12136 33872 ft 482 kts 330°
2026-05-06 09:21 47.29665 6.07079 33871 ft 480 kts 330°
2026-05-06 09:21 47.35985 6.03903 33875 ft 485 kts 348°
2026-05-06 09:22 47.41589 6.03408 33865 ft 487 kts 359°
2026-05-06 09:22 47.49468 6.03601 33856 ft 487 kts 359°
2026-05-06 09:23 47.56228 6.03747 33853 ft 485 kts 359°
2026-05-06 09:23 47.62979 6.03898 33844 ft 485 kts 359°
2026-05-06 09:24 47.68582 6.04018 33854 ft 484 kts 359°
2026-05-06 09:24 47.75306 6.04162 33857 ft 483 kts 360°
2026-05-06 09:25 47.83106 6.04391 33848 ft 482 kts
2026-05-06 09:25 47.89801 6.04626 33846 ft 481 kts
2026-05-06 09:26 47.95356 6.04813 33844 ft 480 kts
2026-05-06 09:26 48.02024 6.05017 33840 ft 479 kts
2026-05-06 09:27 48.08688 6.05212 33835 ft 479 kts
2026-05-06 09:27 48.15344 6.05411 33827 ft 478 kts
2026-05-06 09:28 48.22001 6.05616 33821 ft 478 kts
2026-05-06 09:28 48.28603 6.05835 33815 ft 478 kts
2026-05-06 09:29 48.35253 6.06067 33808 ft 478 kts
2026-05-06 09:29 48.41907 6.06381 33803 ft 478 kts
2026-05-06 09:30 48.48564 6.06730 33799 ft 479 kts
2026-05-06 09:30 48.55222 6.07063 33798 ft 479 kts
2026-05-06 09:31 48.61856 6.07370 33812 ft 480 kts
2026-05-06 09:31 48.68528 6.07672 33807 ft 480 kts
2026-05-06 09:32 48.75201 6.07985 33802 ft 480 kts
2026-05-06 09:32 48.81880 6.08312 33800 ft 480 kts
2026-05-06 09:33 48.88552 6.08644 33801 ft 480 kts
2026-05-06 09:33 48.95225 6.08964 33805 ft 480 kts
2026-05-06 09:34 49.01864 6.09281 33797 ft 480 kts
2026-05-06 09:34 49.08546 6.09602 33792 ft 481 kts
2026-05-06 09:35 49.15226 6.09928 33788 ft 481 kts
2026-05-06 09:35 49.21909 6.10254 33794 ft 480 kts
2026-05-06 09:36 49.28579 6.10573 33785 ft 479 kts
2026-05-06 09:36 49.35193 6.10903 33781 ft 479 kts
2026-05-06 09:37 49.41845 6.11234 33798 ft 477 kts
2026-05-06 09:37 49.48468 6.11556 33802 ft 476 kts
2026-05-06 09:38 49.55083 6.11819 33798 ft 475 kts
2026-05-06 09:38 49.61636 6.12043 33798 ft 474 kts
2026-05-06 09:39 49.68220 6.12280 33798 ft 474 kts
2026-05-06 09:39 49.74813 6.12533 33795 ft 473 kts
2026-05-06 09:40 49.81390 6.12789 33800 ft 473 kts
2026-05-06 09:40 49.91083 6.11247 33787 ft 470 kts 346°
2026-05-06 09:41 49.97470 6.08990 33788 ft 471 kts 346°
2026-05-06 09:41 50.03856 6.06732 33794 ft 471 kts 346°
2026-05-06 09:42 50.10242 6.04475 33794 ft 471 kts 346°
2026-05-06 09:42 50.16588 6.02233 33808 ft 471 kts 346°
2026-05-06 09:43 50.22969 5.99958 33813 ft 470 kts 346°
2026-05-06 09:43 50.29341 5.97679 33828 ft 470 kts 346°
2026-05-06 09:44 50.35710 5.95407 33837 ft 469 kts 346°
2026-05-06 09:44 50.42057 5.93135 33831 ft 468 kts 346°
2026-05-06 09:45 50.48399 5.90852 33840 ft 467 kts 346°
2026-05-06 09:45 50.54692 5.88574 33845 ft 467 kts 345°
2026-05-06 09:46 50.60812 5.85408 33844 ft 462 kts 330°
2026-05-06 09:46 50.65873 5.79343 33832 ft 456 kts 310°
2026-05-06 09:47 50.69357 5.71114 33840 ft 451 kts 295°
2026-05-06 09:47 50.72170 5.62341 33845 ft 451 kts 295°
2026-05-06 09:48 50.75002 5.53498 33859 ft 452 kts 295°
2026-05-06 09:48 50.77833 5.44609 33573 ft 454 kts 295°
2026-05-06 09:49 50.79246 5.40160 33293 ft 454 kts 296°
2026-05-06 09:49 50.80662 5.35693 33015 ft 455 kts 296°
2026-05-06 09:49 50.82077 5.31224 32532 ft 455 kts 295°
2026-05-06 09:49 50.83487 5.26761 31334 ft 463 kts 296°
2026-05-06 09:50 50.84928 5.22178 30377 ft 466 kts 296°
2026-05-06 09:50 50.86340 5.17527 29139 ft 472 kts 292°
2026-05-06 09:50 50.87384 5.12589 27926 ft 475 kts 283°
2026-05-06 09:50 50.87948 5.07438 26714 ft 476 kts 275°
2026-05-06 09:51 50.88189 5.02264 25679 ft 461 kts 274°
2026-05-06 09:51 50.88409 4.97257 24924 ft 454 kts 274°
2026-05-06 09:51 50.88626 4.92297 24104 ft 450 kts 274°
2026-05-06 09:51 50.88839 4.87368 23287 ft 448 kts 274°
2026-05-06 09:52 50.89051 4.82468 22454 ft 443 kts 274°
2026-05-06 09:52 50.89256 4.77686 21727 ft 438 kts 274°
2026-05-06 09:52 50.89457 4.72900 21000 ft 433 kts 274°
2026-05-06 09:52 50.89651 4.68166 20325 ft 429 kts 273°
2026-05-06 09:53 50.89741 4.63468 19654 ft 423 kts 266°
2026-05-06 09:53 50.89297 4.58897 18997 ft 418 kts 255°
2026-05-06 09:53 50.88294 4.54611 18353 ft 414 kts 244°
2026-05-06 09:53 50.86788 4.50767 17677 ft 411 kts 233°
2026-05-06 09:54 50.84847 4.47489 17070 ft 406 kts 221°
2026-05-06 09:54 50.82627 4.44758 16489 ft 401 kts 217°
2026-05-06 09:54 50.80440 4.42163 15938 ft 397 kts 217°
2026-05-06 09:54 50.78239 4.39561 15373 ft 394 kts 218°
2026-05-06 09:55 50.76047 4.36978 14775 ft 392 kts 217°
2026-05-06 09:55 50.73827 4.34501 14185 ft 390 kts 211°
2026-05-06 09:55 50.71344 4.32807 13555 ft 390 kts 195°
2026-05-06 09:55 50.68676 4.32160 12876 ft 388 kts 180°
2026-05-06 09:56 50.66015 4.32592 12243 ft 384 kts 166°
2026-05-06 09:56 50.63516 4.34028 11575 ft 382 kts 152°
2026-05-06 09:56 50.61198 4.35993 11201 ft 372 kts 150°
2026-05-06 09:56 50.58965 4.37880 11081 ft 357 kts 151°
2026-05-06 09:57 50.56853 4.39647 10942 ft 336 kts 151°
2026-05-06 09:57 50.54866 4.41301 10793 ft 312 kts 151°
2026-05-06 09:57 50.52994 4.42860 10363 ft 301 kts 151°
2026-05-06 09:57 50.51165 4.44383 10089 ft 296 kts 151°
2026-05-06 09:58 50.49360 4.45917 9847 ft 294 kts 146°
2026-05-06 09:58 50.47789 4.47945 9712 ft 293 kts 130°
2026-05-06 09:58 50.46627 4.50542 9577 ft 290 kts 115°
2026-05-06 09:58 50.45951 4.53493 9430 ft 287 kts 101°
2026-05-06 09:59 50.45532 4.56566 8975 ft 289 kts 100°
2026-05-06 09:59 50.45115 4.59612 8555 ft 287 kts 100°
2026-05-06 09:59 50.44698 4.62665 8114 ft 287 kts 99°
2026-05-06 09:59 50.44287 4.65703 7786 ft 282 kts 98°
2026-05-06 10:00 50.44165 4.68742 7368 ft 278 kts 83°
2026-05-06 10:00 50.44534 4.71676 6976 ft 273 kts 69°
2026-05-06 10:00 50.45275 4.74390 6602 ft 268 kts 63°
2026-05-06 10:00 50.46087 4.77022 6212 ft 265 kts 55°
2026-05-06 10:01 50.47386 4.78923 6046 ft 255 kts 25°
2026-05-06 10:01 50.49110 4.79512 5695 ft 262 kts 354°
2026-05-06 10:01 50.50832 4.78660 5271 ft 265 kts 336°
2026-05-06 10:01 50.52493 4.77458 4911 ft 260 kts 337°
2026-05-06 10:02 50.53945 4.75849 4571 ft 257 kts 309°
2026-05-06 10:02 50.54534 4.73284 4223 ft 250 kts 271°
2026-05-06 10:02 50.54130 4.70704 3926 ft 240 kts 248°
2026-05-06 10:02 50.53174 4.68615 3644 ft 234 kts 221°
2026-05-06 10:03 50.52037 4.66927 3371 ft 216 kts 242°
2026-05-06 10:03 50.51551 4.64791 3132 ft 206 kts 256°
2026-05-06 10:03 50.51027 4.62714 2872 ft 200 kts 249°
2026-05-06 10:03 50.50469 4.60787 2582 ft 188 kts 249°
2026-05-06 10:04 50.49941 4.58968 2324 ft 178 kts 250°
2026-05-06 10:04 50.49449 4.57265 2090 ft 169 kts 250°
2026-05-06 10:04 50.48988 4.55672 1880 ft 154 kts 251°
2026-05-06 10:04 50.48559 4.54185 1672 ft 146 kts 251°
2026-05-06 10:05 50.48140 4.52731 1457 ft 146 kts 251°
2026-05-06 10:05 50.47723 4.51290 1247 ft 144 kts 251°
2026-05-06 10:05 50.47311 4.49864 1034 ft 142 kts 248°
2026-05-06 10:05 50.46903 4.48453 842 ft 143 kts 247°
2026-05-06 10:06 50.46492 4.47037 652 ft 142 kts 249°
2026-05-06 10:06 50.46132 4.45782 630 ft 91 kts 244°
2026-05-06 10:06 50.45994 4.45313 631 ft 7 kts 246°
2026-05-06 10:06 50.45959 4.45190 631 ft 14 kts 246°
2026-05-06 10:07 50.45925 4.45073 633 ft 11 kts 245°
2026-05-06 10:07 50.45893 4.44961 633 ft 14 kts 245°
2026-05-06 10:07 50.45880 4.44869 628 ft 7 kts 278°
2026-05-06 10:07 50.45903 4.44811 631 ft 7 kts 317°
2026-05-06 10:08 50.45938 4.44780 630 ft 6 kts 333°
2026-05-06 10:08 50.45988 4.44773 627 ft 10 kts
2026-05-06 10:08 50.46042 4.44854 632 ft 13 kts 65°
2026-05-06 10:08 50.46082 4.44992 632 ft 15 kts 64°
2026-05-06 10:09 50.46126 4.45147 628 ft 17 kts 65°
2026-05-06 10:09 50.46176 4.45323 627 ft 18 kts 65°
2026-05-06 10:09 50.46233 4.45518 628 ft 21 kts 66°
2026-05-06 10:09 50.46292 4.45723 627 ft 20 kts 66°
2026-05-06 10:10 50.46351 4.45926 622 ft 21 kts 65°
2026-05-06 10:10 50.46415 4.46142 622 ft 22 kts 65°
2026-05-06 10:10 50.46481 4.46371 618 ft 24 kts 65°
2026-05-06 10:10 50.46529 4.46539 624 ft 13 kts 65°
2026-05-06 10:11 50.46570 4.46678 621 ft 15 kts 64°
2026-05-06 10:11 50.46619 4.46796 617 ft 12 kts 27°
2026-05-06 10:11 50.46693 4.46785 617 ft 10 kts 11°
2026-05-06 10:11 50.46742 4.46867 615 ft 7 kts 66°
2026-05-06 10:12 50.46760 4.46930 620 ft 7 kts 66°
2026-05-06 10:12 50.46785 4.47016 619 ft 8 kts 65°
2026-05-06 10:12 50.46796 4.47054 618 ft 1 kts 65°
2026-05-06 10:12 50.46806 4.47088 617 ft 6 kts 65°
2026-05-06 10:13 50.46839 4.47118 617 ft 7 kts 350°
2026-05-06 10:13 50.46868 4.47102 612 ft 0 kts 336°